| time (UTC) | temp C | wind direction | speed KPH | gust KPH | rain 1hr cm | rain 24hr cm | rain mn cm | humidity % | barometer mb |
| 20260510230649 | 28 | 253 | 0.0 | 0.0 | 0.00 | 0.58 | 0.58 | 74 | 1014.1 |
| 20260510230144 | 28 | 277 | 1.6 | 4.8 | 0.00 | 0.58 | 0.58 | 74 | 1014.1 |
| 20260510225641 | 29 | 287 | 3.2 | 8.0 | 0.00 | 0.58 | 0.58 | 74 | 1014.0 |
| 20260510225137 | 29 | 239 | 0.0 | 0.0 | 0.00 | 0.58 | 0.58 | 73 | 1014.0 |
| 20260510224633 | 29 | 261 | 0.0 | 0.0 | 0.00 | 0.58 | 0.58 | 73 | 1014.1 |
| 20260510224129 | 29 | 303 | 0.0 | 0.0 | 0.00 | 0.58 | 0.58 | 73 | 1014.0 |
| 20260510223628 | 30 | 341 | 1.6 | 3.2 | 0.00 | 0.58 | 0.58 | 73 | 1014.1 |
| 20260510223124 | 30 | 344 | 0.0 | 0.0 | 0.00 | 0.58 | 0.58 | 72 | 1014.0 |
| 20260510222621 | 29 | 264 | 4.8 | 8.0 | 0.00 | 0.58 | 0.58 | 72 | 1014.1 |
| 20260510222119 | 30 | 289 | 0.0 | 0.0 | 0.00 | 0.58 | 0.58 | 72 | 1014.1 |
| 20260510221619 | 30 | 293 | 4.8 | 4.8 | 0.00 | 0.58 | 0.58 | 71 | 1014.0 |
| 20260510221115 | 30 | 334 | 0.0 | 0.0 | 0.00 | 0.58 | 0.58 | 70 | 1014.1 |
| 20260510220613 | 30 | 350 | 0.0 | 0.0 | 0.00 | 0.58 | 0.58 | 71 | 1013.7 |
| 20260510220108 | 30 | 282 | 4.8 | 11.3 | 0.00 | 0.58 | 0.58 | 71 | 1014.0 |
| 20260510215605 | 30 | 285 | 0.0 | 0.0 | 0.00 | 0.58 | 0.58 | 70 | 1014.0 |
| 20260510215104 | 30 | 303 | 6.4 | 11.3 | 0.00 | 0.58 | 0.58 | 68 | 1013.9 |
| 20260510214600 | 30 | 270 | 6.4 | 9.7 | 0.00 | 0.58 | 0.58 | 68 | 1013.9 |
| 20260510214056 | 30 | 295 | 0.0 | 3.2 | 0.00 | 0.58 | 0.58 | 69 | 1014.1 |
| 20260510213554 | 30 | 258 | 0.0 | 0.0 | 0.00 | 0.58 | 0.58 | 71 | 1014.3 |
| 20260510213049 | 30 | 235 | 4.8 | 8.0 | 0.00 | 0.58 | 0.58 | 69 | 1014.2 |
| 20260510212546 | 31 | 285 | 1.6 | 3.2 | 0.00 | 0.58 | 0.58 | 67 | 1014.3 |
| 20260510212044 | 31 | 340 | 6.4 | 11.3 | 0.00 | 0.58 | 0.58 | 66 | 1014.3 |
| 20260510211541 | 30 | 273 | 6.4 | 11.3 | 0.00 | 0.58 | 0.58 | 68 | 1014.1 |
| 20260510211040 | 30 | 254 | 3.2 | 4.8 | 0.00 | 0.58 | 0.58 | 68 | 1014.1 |
| 20260510210537 | 31 | 298 | 3.2 | 4.8 | 0.00 | 0.58 | 0.58 | 68 | 1014.0 |
| 20260510210032 | 31 | 249 | 4.8 | 11.3 | 0.00 | 0.58 | 0.58 | 67 | 1014.0 |
| 20260510205532 | 31 | 300 | 6.4 | 8.0 | 0.00 | 0.58 | 0.58 | 66 | 1014.4 |
| 20260510205028 | 31 | 291 | 4.8 | 8.0 | 0.00 | 0.58 | 0.58 | 68 | 1014.2 |
| 20260510204525 | 31 | 279 | 0.0 | 0.0 | 0.00 | 0.58 | 0.58 | 66 | 1014.1 |
| 20260510204021 | 31 | 326 | 6.4 | 11.3 | 0.00 | 0.58 | 0.58 | 64 | 1014.0 |
| 20260510203518 | 31 | 315 | 3.2 | 8.0 | 0.00 | 0.58 | 0.58 | 65 | 1014.2 |
| 20260510203015 | 31 | 304 | 8.0 | 11.3 | 0.00 | 0.58 | 0.58 | 65 | 1014.0 |
| 20260510202514 | 31 | 292 | 3.2 | 9.7 | 0.00 | 0.58 | 0.58 | 65 | 1014.0 |
| 20260510202010 | 31 | 261 | 8.0 | 11.3 | 0.00 | 0.58 | 0.58 | 63 | 1014.1 |
| 20260510201508 | 31 | 291 | 3.2 | 8.0 | 0.00 | 0.58 | 0.58 | 63 | 1014.0 |
| 20260510201004 | 31 | 4 | 0.0 | 0.0 | 0.00 | 0.58 | 0.58 | 63 | 1013.9 |
| 20260510200500 | 32 | 326 | 0.0 | 0.0 | 0.00 | 0.58 | 0.58 | 61 | 1014.1 |
| 20260510195957 | 32 | 277 | 4.8 | 8.0 | 0.00 | 0.58 | 0.58 | 60 | 1014.0 |
| 20260510195455 | 32 | 328 | 0.0 | 1.6 | 0.00 | 0.58 | 0.58 | 61 | 1014.1 |
| 20260510194950 | 32 | 268 | 4.8 | 9.7 | 0.00 | 0.58 | 0.58 | 62 | 1014.1 |
| 20260510194447 | 31 | 309 | 0.0 | 0.0 | 0.00 | 0.58 | 0.58 | 62 | 1014.1 |
| 20260510193943 | 32 | 271 | 0.0 | 1.6 | 0.00 | 0.58 | 0.58 | 61 | 1014.1 |
| 20260510193438 | 32 | 264 | 6.4 | 11.3 | 0.00 | 0.58 | 0.58 | 61 | 1014.0 |
| 20260510192933 | 32 | 264 | 3.2 | 9.7 | 0.00 | 0.58 | 0.58 | 62 | 1014.1 |
| 20260510192429 | 32 | 287 | 1.6 | 8.0 | 0.00 | 0.58 | 0.58 | 63 | 1014.0 |
| 20260510191925 | 32 | 294 | 8.0 | 11.3 | 0.00 | 0.58 | 0.58 | 65 | 1013.9 |
| 20260510191421 | 32 | 341 | 6.4 | 11.3 | 0.00 | 0.58 | 0.58 | 62 | 1014.1 |
| 20260510190919 | 32 | 281 | 4.8 | 12.9 | 0.00 | 0.58 | 0.58 | 65 | 1014.1 |
| 20260510190416 | 32 | 241 | 6.4 | 11.3 | 0.00 | 0.58 | 0.58 | 64 | 1014.0 |
| 20260510185912 | 32 | 251 | 1.6 | 3.2 | 0.00 | 0.58 | 0.58 | 64 | 1014.2 |
| 20260510185410 | 32 | 230 | 1.6 | 3.2 | 0.00 | 0.58 | 0.58 | 65 | 1014.0 |
| 20260510184907 | 32 | 272 | 9.7 | 14.5 | 0.00 | 0.58 | 0.58 | 64 | 1013.9 |
| 20260510184404 | 32 | 297 | 4.8 | 11.3 | 0.00 | 0.58 | 0.58 | 65 | 1014.1 |
| 20260510183903 | 33 | 247 | 1.6 | 4.8 | 0.00 | 0.58 | 0.58 | 63 | 1014.1 |
| 20260510183401 | 32 | 229 | 4.8 | 9.7 | 0.00 | 0.58 | 0.58 | 64 | 1014.3 |
| 20260510182855 | 32 | 282 | 8.0 | 9.7 | 0.00 | 0.58 | 0.58 | 65 | 1014.4 |
| 20260510182352 | 32 | 221 | 0.0 | 0.0 | 0.00 | 0.58 | 0.58 | 64 | 1014.2 |
| 20260510181848 | 32 | 231 | 0.0 | 0.0 | 0.00 | 0.58 | 0.58 | 64 | 1014.4 |
| 20260510181345 | 32 | 273 | 0.0 | 1.6 | 0.00 | 0.58 | 0.58 | 62 | 1014.6 |
| 20260510180841 | 33 | 217 | 0.0 | 0.0 | 0.00 | 0.58 | 0.58 | 63 | 1014.4 |
| 20260510180339 | 32 | 248 | 9.7 | 11.3 | 0.00 | 0.58 | 0.58 | 65 | 1014.6 |
| 20260510175836 | 31 | 262 | 0.0 | 0.0 | 0.00 | 0.58 | 0.58 | 66 | 1014.7 |
| 20260510175331 | 31 | 290 | 0.0 | 3.2 | 0.00 | 0.58 | 0.58 | 66 | 1014.7 |
| 20260510174828 | 31 | 241 | 1.6 | 3.2 | 0.00 | 0.58 | 0.58 | 66 | 1014.7 |
| 20260510174326 | 32 | 308 | 6.4 | 9.7 | 0.00 | 0.58 | 0.58 | 66 | 1014.7 |
| 20260510173821 | 32 | 241 | 4.8 | 9.7 | 0.00 | 0.58 | 0.58 | 65 | 1015.0 |
| 20260510173318 | 32 | 200 | 0.0 | 0.0 | 0.00 | 0.58 | 0.58 | 65 | 1014.9 |
| 20260510172814 | 32 | 283 | 1.6 | 3.2 | 0.00 | 0.58 | 0.58 | 64 | 1014.9 |
| 20260510172310 | 31 | 264 | 9.7 | 14.5 | 0.00 | 0.58 | 0.58 | 66 | 1015.0 |
| 20260510171807 | 32 | 274 | 8.0 | 11.3 | 0.00 | 0.58 | 0.58 | 63 | 1015.1 |
| 20260510171304 | 32 | 222 | 0.0 | 0.0 | 0.00 | 0.58 | 0.58 | 64 | 1015.1 |
| 20260510170801 | 32 | 220 | 0.0 | 0.0 | 0.00 | 0.58 | 0.58 | 67 | 1015.1 |
| 20260510170257 | 31 | 207 | 0.0 | 0.0 | 0.00 | 0.58 | 0.58 | 67 | 1015.0 |
| 20260510165752 | 32 | 261 | 0.0 | 3.2 | 0.00 | 0.58 | 0.58 | 68 | 1015.5 |
| 20260510165249 | 31 | 261 | 0.0 | 0.0 | 0.00 | 0.58 | 0.58 | 67 | 1015.4 |
| 20260510164746 | 32 | 226 | 0.0 | 1.6 | 0.00 | 0.58 | 0.58 | 65 | 1015.6 |
| 20260510164244 | 31 | 245 | 0.0 | 3.2 | 0.00 | 0.58 | 0.58 | 67 | 1015.6 |
| 20260510163744 | 31 | 178 | 0.0 | 0.0 | 0.00 | 0.58 | 0.58 | 66 | 1015.4 |
| 20260510163240 | 30 | 244 | 0.0 | 0.0 | 0.00 | 0.58 | 0.58 | 70 | 1015.3 |
| 20260510162740 | 31 | 298 | 0.0 | 0.0 | 0.00 | 0.58 | 0.58 | 69 | 1015.4 |
| 20260510162237 | 31 | 252 | 0.0 | 0.0 | 0.00 | 0.58 | 0.58 | 68 | 1015.8 |
| 20260510161733 | 31 | 314 | 0.0 | 0.0 | 0.00 | 0.58 | 0.58 | 68 | 1015.6 |
| 20260510161229 | 31 | 209 | 0.0 | 0.0 | 0.00 | 0.58 | 0.58 | 69 | 1015.7 |
| 20260510160726 | 32 | 212 | 0.0 | 0.0 | 0.00 | 0.58 | 0.58 | 66 | 1015.6 |
| 20260510160226 | 31 | 237 | 1.6 | 4.8 | 0.00 | 0.58 | 0.58 | 65 | 1015.7 |
| 20260510155723 | 30 | 195 | 0.0 | 0.0 | 0.00 | 0.58 | 0.58 | 70 | 1015.7 |
| 20260510155218 | 30 | 290 | 1.6 | 3.2 | 0.00 | 0.58 | 0.58 | 70 | 1015.6 |
| 20260510154714 | 31 | 241 | 0.0 | 0.0 | 0.00 | 0.58 | 0.58 | 69 | 1015.8 |
| 20260510154211 | 30 | 252 | 0.0 | 0.0 | 0.00 | 0.58 | 0.58 | 71 | 1015.8 |
| 20260510153705 | 30 | 241 | 0.0 | 0.0 | 0.00 | 0.58 | 0.58 | 71 | 1015.4 |
| 20260510153202 | 30 | 263 | 4.8 | 11.3 | 0.00 | 0.58 | 0.58 | 72 | 1015.4 |
| 20260510152659 | 30 | 178 | 0.0 | 0.0 | 0.00 | 0.58 | 0.58 | 73 | 1015.5 |
| 20260510152155 | 30 | 242 | 0.0 | 0.0 | 0.00 | 0.58 | 0.58 | 73 | 1015.6 |
| 20260510151651 | 30 | 239 | 0.0 | 0.0 | 0.00 | 0.58 | 0.58 | 75 | 1015.7 |
| 20260510151150 | 30 | 271 | 0.0 | 0.0 | 0.00 | 0.58 | 0.58 | 74 | 1015.7 |
| 20260510150646 | 30 | 267 | 0.0 | 0.0 | 0.00 | 0.58 | 0.58 | 74 | 1015.7 |
| 20260510150141 | 30 | 172 | 0.0 | 0.0 | 0.00 | 0.58 | 0.58 | 71 | 1015.6 |
| 20260510145638 | 29 | 272 | 1.6 | 3.2 | 0.00 | 0.58 | 0.58 | 73 | 1015.7 |
| 20260510145134 | 29 | 213 | 0.0 | 0.0 | 0.00 | 0.58 | 0.58 | 75 | 1015.6 |
| 20260510144630 | 29 | 252 | 0.0 | 0.0 | 0.00 | 0.58 | 0.58 | 74 | 1015.7 |
| 20260510144126 | 29 | 229 | 0.0 | 0.0 | 0.00 | 0.58 | 0.58 | 75 | 1015.7 |
| 20260510143622 | 30 | 264 | 0.0 | 0.0 | 0.00 | 0.58 | 0.58 | 74 | 1015.6 |
| 20260510143119 | 30 | 195 | 0.0 | 0.0 | 0.00 | 0.58 | 0.58 | 75 | 1015.7 |
| 20260510142615 | 28 | 65 | 0.0 | 0.0 | 0.00 | 0.58 | 0.58 | 78 | 1015.5 |
| 20260510142112 | 29 | 227 | 0.0 | 0.0 | 0.00 | 0.58 | 0.58 | 77 | 1015.7 |
| 20260510141609 | 28 | 157 | 0.0 | 0.0 | 0.00 | 0.58 | 0.58 | 80 | 1015.5 |
| 20260510141107 | 28 | 185 | 0.0 | 0.0 | 0.00 | 0.58 | 0.58 | 80 | 1015.6 |
| 20260510140603 | 28 | 226 | 0.0 | 0.0 | 0.00 | 0.58 | 0.58 | 82 | 1015.6 |
| 20260510135558 | 26 | 169 | 0.0 | 0.0 | 0.00 | 0.58 | 0.58 | 90 | 1015.4 |
| 20260510135055 | 25 | 149 | 0.0 | 0.0 | 0.00 | 0.58 | 0.58 | 93 | 1015.4 |
| 20260510134552 | 25 | 161 | 0.0 | 0.0 | 0.00 | 0.58 | 0.58 | 95 | 1015.3 |
| 20260510134049 | 25 | 210 | 0.0 | 0.0 | 0.00 | 0.58 | 0.58 | 95 | 1015.4 |
| 20260510133544 | 24 | 215 | 0.0 | 0.0 | 0.00 | 0.58 | 0.58 | 97 | 1015.5 |
| 20260510133040 | 24 | 206 | 0.0 | 0.0 | 0.00 | 0.58 | 0.58 | 97 | 1015.6 |
| 20260510132537 | 24 | 154 | 0.0 | 0.0 | 0.00 | 0.58 | 0.58 | 98 | 1015.2 |
| 20260510132034 | 23 | 160 | 0.0 | 0.0 | 0.00 | 0.58 | 0.58 | 98 | 1015.4 |
| 20260510131532 | 23 | 139 | 0.0 | 0.0 | 0.00 | 0.58 | 0.58 | 98 | 1015.0 |
| 20260510131029 | 23 | 163 | 0.0 | 0.0 | 0.00 | 0.58 | 0.58 | 98 | 1015.2 |
| 20260510130525 | 23 | 167 | 0.0 | 0.0 | 0.00 | 0.58 | 0.58 | 98 | 1015.1 |
| 20260510130023 | 23 | 167 | 0.0 | 0.0 | 0.00 | 0.58 | 0.58 | 99 | 1015.2 |
| 20260510125519 | 23 | 161 | 0.0 | 0.0 | 0.00 | 0.58 | 0.58 | 99 | 1015.3 |
| 20260510125016 | 23 | 161 | 0.0 | 0.0 | 0.00 | 0.58 | 0.58 | 99 | 1015.4 |
| 20260510124512 | 23 | 166 | 0.0 | 0.0 | 0.00 | 0.58 | 0.58 | 99 | 1015.3 |
| 20260510124009 | 23 | 167 | 0.0 | 0.0 | 0.00 | 0.58 | 0.58 | 99 | 1015.3 |
| 20260510123504 | 23 | 153 | 0.0 | 0.0 | 0.00 | 0.58 | 0.58 | 99 | 1015.0 |
| 20260510123000 | 23 | 165 | 0.0 | 0.0 | 0.00 | 0.58 | 0.58 | 99 | 1015.1 |
| 20260510122456 | 23 | 161 | 0.0 | 0.0 | 0.00 | 0.58 | 0.58 | 99 | 1015.0 |
| 20260510121952 | 23 | 167 | 0.0 | 0.0 | 0.00 | 0.58 | 0.58 | 99 | 1014.9 |
| 20260510121450 | 23 | 166 | 0.0 | 0.0 | 0.00 | 0.58 | 0.58 | 99 | 1015.1 |
| 20260510120947 | 23 | 177 | 0.0 | 0.0 | 0.00 | 0.58 | 0.58 | 99 | 1014.8 |
| 20260510120445 | 23 | 171 | 0.0 | 0.0 | 0.00 | 0.58 | 0.58 | 99 | 1014.6 |
| 20260510115940 | 22 | 158 | 0.0 | 0.0 | 0.00 | 0.58 | 0.58 | 99 | 1014.9 |
| 20260510115437 | 22 | 155 | 0.0 | 0.0 | 0.00 | 0.58 | 0.58 | 99 | 1014.6 |
| 20260510114933 | 22 | 154 | 0.0 | 0.0 | 0.00 | 0.58 | 0.58 | 99 | 1014.5 |
| 20260510114430 | 22 | 153 | 0.0 | 0.0 | 0.00 | 0.58 | 0.58 | 99 | 1014.3 |
| 20260510113925 | 22 | 153 | 0.0 | 0.0 | 0.00 | 0.58 | 0.58 | 99 | 1014.5 |
| 20260510113421 | 22 | 153 | 0.0 | 0.0 | 0.00 | 0.58 | 0.58 | 99 | 1014.3 |
| 20260510112919 | 22 | 149 | 0.0 | 0.0 | 0.00 | 0.58 | 0.58 | 99 | 1014.1 |
| 20260510112417 | 22 | 156 | 0.0 | 0.0 | 0.00 | 0.58 | 0.58 | 99 | 1014.2 |
| 20260510111912 | 22 | 159 | 0.0 | 0.0 | 0.00 | 0.58 | 0.58 | 99 | 1014.1 |
| 20260510111408 | 21 | 162 | 0.0 | 0.0 | 0.00 | 0.58 | 0.58 | 99 | 1014.1 |
| 20260510110904 | 21 | 165 | 0.0 | 0.0 | 0.00 | 0.58 | 0.58 | 99 | 1014.0 |
| 20260510110401 | 21 | 162 | 0.0 | 0.0 | 0.00 | 0.58 | 0.58 | 99 | 1014.0 |
| 20260510105857 | 21 | 169 | 0.0 | 0.0 | 0.00 | 0.58 | 0.58 | 99 | 1014.0 |
| 20260510105356 | 21 | 169 | 0.0 | 0.0 | 0.00 | 0.58 | 0.58 | 99 | 1013.9 |
| 20260510104853 | 21 | 162 | 0.0 | 0.0 | 0.00 | 0.58 | 0.58 | 99 | 1013.8 |
| 20260510104350 | 21 | 170 | 0.0 | 0.0 | 0.00 | 0.58 | 0.58 | 99 | 1013.5 |
| 20260510103846 | 21 | 169 | 0.0 | 0.0 | 0.00 | 0.58 | 0.58 | 99 | 1013.1 |
| 20260510103343 | 21 | 176 | 0.0 | 0.0 | 0.00 | 0.58 | 0.58 | 99 | 1013.1 |
| 20260510102839 | 21 | 169 | 0.0 | 0.0 | 0.00 | 0.58 | 0.58 | 99 | 1013.2 |
| 20260510102335 | 21 | 160 | 0.0 | 0.0 | 0.00 | 0.58 | 0.58 | 99 | 1013.1 |
| 20260510101832 | 21 | 162 | 0.0 | 0.0 | 0.00 | 0.58 | 0.58 | 99 | 1013.1 |
| 20260510101330 | 21 | 161 | 0.0 | 0.0 | 0.00 | 0.58 | 0.58 | 99 | 1013.1 |
| 20260510100825 | 21 | 162 | 0.0 | 0.0 | 0.00 | 0.58 | 0.58 | 99 | 1012.9 |
| 20260510100324 | 21 | 169 | 0.0 | 0.0 | 0.00 | 0.58 | 0.58 | 99 | 1013.0 |
| 20260510095820 | 21 | 176 | 0.0 | 0.0 | 0.00 | 0.58 | 0.58 | 99 | 1013.0 |
| 20260510095314 | 22 | 176 | 0.0 | 0.0 | 0.00 | 0.58 | 0.58 | 99 | 1012.9 |
| 20260510094809 | 21 | 176 | 0.0 | 0.0 | 0.00 | 0.58 | 0.58 | 99 | 1012.6 |
| 20260510094304 | 22 | 176 | 0.0 | 0.0 | 0.00 | 0.58 | 0.58 | 99 | 1012.9 |
| 20260510093800 | 22 | 176 | 0.0 | 0.0 | 0.00 | 0.58 | 0.58 | 99 | 1012.8 |
| 20260510093257 | 22 | 172 | 0.0 | 0.0 | 0.00 | 0.58 | 0.58 | 99 | 1012.5 |
| 20260510092753 | 22 | 161 | 0.0 | 0.0 | 0.00 | 0.58 | 0.58 | 99 | 1012.5 |
| 20260510092249 | 22 | 176 | 0.0 | 0.0 | 0.00 | 0.58 | 0.58 | 99 | 1012.7 |
| 20260510091745 | 22 | 176 | 0.0 | 0.0 | 0.00 | 0.58 | 0.58 | 99 | 1012.7 |
| 20260510091242 | 22 | 176 | 0.0 | 0.0 | 0.00 | 0.58 | 0.58 | 99 | 1012.4 |
| 20260510090739 | 22 | 176 | 0.0 | 0.0 | 0.00 | 0.58 | 0.58 | 99 | 1012.3 |
| 20260510090236 | 22 | 162 | 0.0 | 0.0 | 0.00 | 0.58 | 0.58 | 99 | 1012.1 |
| 20260510085731 | 22 | 161 | 0.0 | 0.0 | 0.00 | 0.58 | 0.58 | 99 | 1012.3 |
| 20260510085226 | 22 | 161 | 0.0 | 0.0 | 0.00 | 0.58 | 0.58 | 99 | 1012.1 |
| 20260510084722 | 22 | 161 | 0.0 | 0.0 | 0.00 | 0.58 | 0.58 | 98 | 1012.1 |
| 20260510084219 | 22 | 176 | 0.0 | 0.0 | 0.00 | 0.58 | 0.58 | 98 | 1012.0 |
| 20260510083716 | 22 | 172 | 0.0 | 0.0 | 0.00 | 0.58 | 0.58 | 98 | 1012.3 |
| 20260510083213 | 22 | 172 | 0.0 | 0.0 | 0.00 | 0.58 | 0.58 | 98 | 1012.1 |
| 20260510082708 | 22 | 172 | 0.0 | 0.0 | 0.00 | 0.58 | 0.58 | 98 | 1012.0 |
| 20260510082205 | 22 | 170 | 0.0 | 0.0 | 0.00 | 0.58 | 0.58 | 98 | 1012.0 |
| 20260510081659 | 22 | 169 | 0.0 | 0.0 | 0.00 | 0.58 | 0.58 | 97 | 1012.1 |
| 20260510081155 | 22 | 172 | 0.0 | 0.0 | 0.00 | 0.58 | 0.58 | 97 | 1012.3 |
| 20260510080655 | 22 | 169 | 0.0 | 0.0 | 0.00 | 0.58 | 0.58 | 97 | 1012.3 |
| 20260510080152 | 22 | 172 | 0.0 | 0.0 | 0.00 | 0.58 | 0.58 | 97 | 1012.3 |
| 20260510075649 | 22 | 169 | 0.0 | 0.0 | 0.00 | 0.58 | 0.58 | 97 | 1012.3 |
| 20260510075146 | 22 | 171 | 0.0 | 0.0 | 0.00 | 0.58 | 0.58 | 97 | 1012.5 |
| 20260510074643 | 22 | 169 | 0.0 | 0.0 | 0.00 | 0.58 | 0.58 | 97 | 1012.3 |
| 20260510074139 | 22 | 161 | 0.0 | 0.0 | 0.00 | 0.58 | 0.58 | 96 | 1012.3 |
| 20260510073636 | 22 | 161 | 0.0 | 0.0 | 0.00 | 0.58 | 0.58 | 96 | 1012.4 |
| 20260510073132 | 23 | 169 | 0.0 | 0.0 | 0.00 | 0.58 | 0.58 | 96 | 1012.4 |
| 20260510072628 | 22 | 169 | 0.0 | 0.0 | 0.00 | 0.58 | 0.58 | 96 | 1012.4 |
| 20260510072125 | 22 | 161 | 0.0 | 0.0 | 0.00 | 0.58 | 0.58 | 96 | 1012.5 |
| 20260510071620 | 22 | 165 | 0.0 | 0.0 | 0.00 | 0.58 | 0.58 | 96 | 1012.5 |
| 20260510071118 | 22 | 162 | 0.0 | 0.0 | 0.00 | 0.58 | 0.58 | 96 | 1012.7 |
| 20260510070615 | 23 | 137 | 0.0 | 0.0 | 0.00 | 0.58 | 0.58 | 96 | 1012.8 |
| 20260510070113 | 23 | 149 | 0.0 | 0.0 | 0.00 | 0.58 | 0.58 | 96 | 1012.7 |
| 20260510065608 | 23 | 169 | 0.0 | 0.0 | 0.00 | 0.58 | 0.58 | 96 | 1012.7 |
| 20260510065104 | 23 | 169 | 0.0 | 0.0 | 0.00 | 0.58 | 0.58 | 95 | 1012.7 |
| 20260510064601 | 23 | 162 | 0.0 | 0.0 | 0.00 | 0.58 | 0.58 | 95 | 1012.7 |
| 20260510064058 | 23 | 163 | 0.0 | 0.0 | 0.00 | 0.58 | 0.58 | 95 | 1012.8 |
| 20260510063555 | 23 | 163 | 0.0 | 0.0 | 0.00 | 0.58 | 0.58 | 94 | 1012.9 |
| 20260510063052 | 23 | 148 | 0.0 | 0.0 | 0.00 | 0.58 | 0.58 | 94 | 1012.9 |
| 20260510062548 | 23 | 156 | 0.0 | 0.0 | 0.18 | 0.58 | 0.58 | 94 | 1013.1 |
| 20260510062043 | 23 | 151 | 0.0 | 0.0 | 0.48 | 0.58 | 0.58 | 94 | 1013.0 |
| 20260510061540 | 23 | 149 | 0.0 | 0.0 | 1.68 | 0.56 | 0.56 | 93 | 1013.1 |
| 20260510061036 | 23 | 158 | 0.0 | 0.0 | 2.16 | 0.53 | 0.53 | 93 | 1013.3 |
| 20260510060533 | 23 | 164 | 0.0 | 0.0 | 0.89 | 0.28 | 0.28 | 93 | 1013.4 |
| 20260510060029 | 23 | 151 | 0.0 | 0.0 | 0.30 | 0.15 | 0.15 | 92 | 1013.6 |
| 20260510055525 | 24 | 165 | 0.0 | 0.0 | 0.30 | 0.13 | 0.13 | 92 | 1013.5 |
| 20260510055024 | 24 | 148 | 0.0 | 0.0 | 0.61 | 0.10 | 0.10 | 91 | 1013.5 |
| 20260510054519 | 25 | 163 | 0.0 | 0.0 | 0.48 | 0.08 | 0.08 | 90 | 1013.6 |
| 20260510054014 | 25 | 156 | 0.0 | 0.0 | 0.00 | 0.00 | 0.00 | 89 | 1013.5 |
| 20260510053509 | 25 | 151 | 0.0 | 0.0 | 0.00 | 0.00 | 0.00 | 88 | 1013.8 |
| 20260510053007 | 25 | 144 | 0.0 | 0.0 | 0.00 | 0.00 | 0.00 | 88 | 1013.5 |
| 20260510052503 | 25 | 155 | 0.0 | 0.0 | 0.00 | 0.00 | 0.00 | 88 | 1013.7 |
| 20260510051959 | 25 | 151 | 0.0 | 0.0 | 0.00 | 0.00 | 0.00 | 88 | 1013.7 |
| 20260510051454 | 25 | 146 | 0.0 | 0.0 | 0.00 | 0.00 | 0.00 | 88 | 1013.8 |
| 20260510050951 | 25 | 163 | 0.0 | 0.0 | 0.00 | 0.00 | 0.00 | 88 | 1014.0 |
| 20260510050448 | 25 | 159 | 0.0 | 0.0 | 0.00 | 0.00 | 0.00 | 88 | 1013.8 |
| 20260510045945 | 25 | 166 | 0.0 | 0.0 | 0.00 | 0.00 | 0.00 | 88 | 1013.9 |
| 20260510045443 | 25 | 155 | 0.0 | 0.0 | 0.00 | 0.00 | 0.00 | 88 | 1013.9 |
| 20260510044939 | 25 | 128 | 0.0 | 0.0 | 0.00 | 0.00 | 0.00 | 89 | 1013.9 |
| 20260510044436 | 25 | 157 | 0.0 | 0.0 | 0.00 | 0.00 | 0.00 | 89 | 1014.1 |
| 20260510043933 | 25 | 151 | 0.0 | 0.0 | 0.00 | 0.00 | 0.00 | 89 | 1013.9 |
| 20260510043428 | 25 | 151 | 0.0 | 0.0 | 0.00 | 0.00 | 0.00 | 89 | 1014.0 |
| 20260510042927 | 25 | 147 | 0.0 | 0.0 | 0.00 | 0.00 | 0.00 | 89 | 1014.0 |
| 20260510042423 | 24 | 151 | 0.0 | 0.0 | 0.00 | 0.00 | 0.00 | 89 | 1013.7 |
| 20260510041918 | 24 | 154 | 0.0 | 0.0 | 0.00 | 0.00 | 0.00 | 89 | 1014.1 |
| 20260510041416 | 24 | 153 | 0.0 | 0.0 | 0.00 | 0.00 | 0.00 | 89 | 1014.0 |
| 20260510040914 | 24 | 153 | 0.0 | 0.0 | 0.00 | 0.00 | 0.00 | 89 | 1013.9 |
| 20260510040410 | 24 | 149 | 0.0 | 0.0 | 0.00 | 0.00 | 0.00 | 89 | 1013.9 |
| 20260510035905 | 24 | 140 | 0.0 | 0.0 | 0.00 | 0.00 | 0.00 | 89 | 1013.9 |
| 20260510035402 | 24 | 138 | 0.0 | 0.0 | 0.00 | 0.00 | 0.00 | 89 | 1013.7 |
| 20260510034857 | 24 | 158 | 0.0 | 0.0 | 0.00 | 0.00 | 0.00 | 89 | 1014.0 |
| 20260510034356 | 25 | 158 | 0.0 | 0.0 | 0.00 | 0.00 | 0.00 | 88 | 1013.7 |
| 20260510033851 | 25 | 153 | 0.0 | 0.0 | 0.00 | 0.00 | 0.00 | 88 | 1013.8 |
| 20260510033348 | 25 | 146 | 0.0 | 0.0 | 0.00 | 0.00 | 0.00 | 87 | 1013.7 |
| 20260510032844 | 25 | 154 | 0.0 | 0.0 | 0.00 | 0.00 | 0.00 | 87 | 1013.6 |
| 20260510032341 | 25 | 150 | 0.0 | 0.0 | 0.00 | 0.00 | 0.00 | 86 | 1013.7 |
| 20260510031837 | 25 | 157 | 0.0 | 0.0 | 0.00 | 0.00 | 0.00 | 86 | 1013.7 |
| 20260510031333 | 25 | 159 | 0.0 | 0.0 | 0.00 | 0.00 | 0.00 | 86 | 1013.6 |
| 20260510030832 | 25 | 154 | 0.0 | 0.0 | 0.00 | 0.00 | 0.00 | 85 | 1013.9 |
| 20260510030329 | 25 | 141 | 0.0 | 0.0 | 0.00 | 0.00 | 0.00 | 85 | 1013.7 |
| 20260510025826 | 25 | 145 | 0.0 | 0.0 | 0.00 | 0.00 | 0.00 | 85 | 1013.8 |
| 20260510025324 | 25 | 147 | 0.0 | 0.0 | 0.00 | 0.00 | 0.00 | 84 | 1013.7 |
| 20260510024820 | 25 | 142 | 0.0 | 0.0 | 0.00 | 0.00 | 0.00 | 84 | 1013.6 |
| 20260510024318 | 25 | 156 | 0.0 | 0.0 | 0.00 | 0.00 | 0.00 | 84 | 1013.7 |
| 20260510023814 | 25 | 149 | 0.0 | 0.0 | 0.00 | 0.00 | 0.00 | 84 | 1013.6 |
| 20260510023310 | 25 | 136 | 0.0 | 0.0 | 0.00 | 0.00 | 0.00 | 83 | 1013.7 |
| 20260510022807 | 25 | 163 | 0.0 | 0.0 | 0.00 | 0.00 | 0.00 | 84 | 1013.6 |
| 20260510022307 | 25 | 158 | 0.0 | 0.0 | 0.00 | 0.00 | 0.00 | 83 | 1013.7 |
| 20260510021806 | 25 | 150 | 0.0 | 0.0 | 0.00 | 0.00 | 0.00 | 83 | 1013.5 |
| 20260510021304 | 25 | 152 | 0.0 | 0.0 | 0.00 | 0.00 | 0.00 | 83 | 1013.7 |
| 20260510020759 | 25 | 151 | 0.0 | 0.0 | 0.00 | 0.00 | 0.00 | 83 | 1013.6 |
| 20260510020254 | 25 | 147 | 0.0 | 0.0 | 0.00 | 0.00 | 0.00 | 82 | 1013.5 |
| 20260510015750 | 25 | 148 | 0.0 | 0.0 | 0.00 | 0.00 | 0.00 | 81 | 1013.4 |
| 20260510015247 | 25 | 152 | 0.0 | 0.0 | 0.00 | 0.00 | 0.00 | 80 | 1013.4 |
| 20260510014741 | 26 | 151 | 0.0 | 0.0 | 0.00 | 0.00 | 0.00 | 80 | 1013.3 |
| 20260510014239 | 26 | 155 | 0.0 | 0.0 | 0.00 | 0.00 | 0.00 | 80 | 1012.9 |
| 20260510013735 | 26 | 225 | 0.0 | 0.0 | 0.00 | 0.00 | 0.00 | 80 | 1013.1 |
| 20260510013230 | 26 | 163 | 0.0 | 0.0 | 0.00 | 0.00 | 0.00 | 80 | 1013.1 |
| 20260510012725 | 26 | 162 | 0.0 | 0.0 | 0.00 | 0.00 | 0.00 | 79 | 1012.7 |
| 20260510012221 | 26 | 225 | 0.0 | 0.0 | 0.00 | 0.00 | 0.00 | 79 | 1012.7 |
| 20260510011720 | 26 | 280 | 0.0 | 0.0 | 0.00 | 0.00 | 0.00 | 78 | 1012.7 |
| 20260510011216 | 26 | 297 | 0.0 | 0.0 | 0.00 | 0.00 | 0.00 | 78 | 1012.5 |
| 20260510010713 | 26 | 183 | 0.0 | 0.0 | 0.00 | 0.00 | 0.00 | 78 | 1012.5 |
| 20260510010210 | 27 | 256 | 0.0 | 0.0 | 0.00 | 0.00 | 0.00 | 77 | 1012.5 |
| 20260510005707 | 27 | 234 | 0.0 | 0.0 | 0.00 | 0.00 | 0.00 | 77 | 1012.4 |
| 20260510005203 | 27 | 218 | 0.0 | 0.0 | 0.00 | 0.00 | 0.00 | 76 | 1012.5 |
| 20260510004702 | 27 | 292 | 0.0 | 0.0 | 0.00 | 0.00 | 0.00 | 75 | 1012.3 |
| 20260510004159 | 27 | 258 | 0.0 | 0.0 | 0.00 | 0.00 | 0.00 | 74 | 1012.0 |
| 20260510003656 | 27 | 255 | 0.0 | 0.0 | 0.00 | 0.00 | 0.00 | 73 | 1012.5 |
| 20260510003152 | 27 | 293 | 0.0 | 0.0 | 0.00 | 0.00 | 0.00 | 72 | 1012.3 |
| 20260510002651 | 27 | 215 | 0.0 | 0.0 | 0.00 | 0.00 | 0.00 | 71 | 1012.3 |
| 20260510002149 | 27 | 322 | 0.0 | 0.0 | 0.00 | 0.00 | 0.00 | 70 | 1011.9 |
| 20260510001646 | 27 | 339 | 0.0 | 0.0 | 0.00 | 0.00 | 0.00 | 69 | 1012.1 |
| 20260510001145 | 27 | 312 | 1.6 | 4.8 | 0.00 | 0.00 | 0.00 | 69 | 1012.1 |
| 20260510000644 | 27 | 260 | 3.2 | 3.2 | 0.00 | 0.00 | 0.00 | 68 | 1011.7 |
| 20260510000143 | 28 | 302 | 8.0 | 8.0 | 0.00 | 0.00 | 0.00 | 67 | 1011.7 |
| 20260509235638 | 28 | 315 | 0.0 | 0.0 | 0.00 | 0.00 | 0.00 | 68 | 1011.7 |
| 20260509235135 | 28 | 244 | 0.0 | 0.0 | 0.00 | 0.00 | 0.00 | 66 | 1011.5 |
| 20260509234631 | 28 | 269 | 0.0 | 1.6 | 0.00 | 0.00 | 0.00 | 65 | 1011.7 |
| 20260509234129 | 28 | 186 | 0.0 | 0.0 | 0.00 | 0.00 | 0.00 | 64 | 1011.6 |
| 20260509233627 | 28 | 143 | 0.0 | 0.0 | 0.00 | 0.00 | 0.00 | 62 | 1011.3 |
| 20260509233124 | 29 | 324 | 6.4 | 8.0 | 0.00 | 0.00 | 0.00 | 61 | 1011.3 |
| 20260509232620 | 29 | 263 | 0.0 | 0.0 | 0.00 | 0.00 | 0.00 | 60 | 1011.4 |
| 20260509232117 | 29 | 282 | 3.2 | 8.0 | 0.00 | 0.00 | 0.00 | 59 | 1011.3 |
| 20260509231614 | 30 | 19 | 3.2 | 4.8 | 0.00 | 0.00 | 0.00 | 58 | 1011.4 |